Regional Weather Roundup
Issued by NWS

Home | Current Version | Previous Version | Text Only | Print | Product List | Glossary On
Versions: 1 2 3 4 5 6 7 8 9 10 11 12 13 14 15 16 17 18 19 20 21 22 23 24 25 26 27 28 29 30 31 32 33 34 35 36 37 38 39 40 41 42 43 44 45 46 47 48 49 50
129
ASUS43 KMPX 260301
RWRMN
WEATHER ROUNDUP FOR MINNESOTA
NATIONAL WEATHER SERVICE TWIN CITIES/CHANHASSEN MN
900 PM CST SAT FEB 25 2017


NOTE: "FAIR" INDICATES FEW OR NO CLOUDS BELOW 12,000 FEET WITH NO
SIGNIFICANT WEATHER AND/OR OBSTRUCTIONS TO VISIBILITY. N/A MEANS
CURRENT SKY AND/OR WEATHER CONDITIONS ARE NOT AVAILABLE.

MNZ060>063-068>070-260400-
   Twin Cities Metro

CITY           SKY/WX    TMP DP  RH WIND       PRES   REMARKS
TWIN CITIES    MOCLDY    26  17  68 S9        29.85F WCI  17
ST PAUL        CLEAR     26  18  71 S8        29.87S WCI  18
CRYSTAL        CLEAR     27  17  66 S13       29.82F WCI  16
BLAINE         PTCLDY    28  21  74 S12       29.82F WCI  18
LAKEVILLE      MOCLDY    23  18  80 SW5       29.86S WCI  17
EDEN PRAIRIE   CLEAR     26  18  71 S16       29.83F WCI  14
SOUTH ST PAUL  CLEAR     26  18  72 S9        29.86R WCI  17
LAKE ELMO      FAIR      27  21  80 S10       29.85F WCI  17
$$
MNZ001>005-007-008-013>017-022>024-027-028-260400-
   Northwest Minnesota

CITY           SKY/WX    TMP DP  RH WIND       PRES   REMARKS
BEMIDJI        MOCLDY    19  17  90 CALM      29.69S
HALLOCK        CLEAR     10   9  92 CALM      29.75S
ROSEAU         CLEAR     12   9  85 W8        29.72S WCI   1
WARROAD        CLEAR     16   9  73 W8        29.71R WCI   5
THIEF RVR FALL MOCLDY    19  14  81 NW10      29.73S WCI   7
CROOKSTON      PTCLDY    21  12  68 N13       29.75S WCI   9
FOSSTON        CLOUDY    19  16  86 NW5       29.71S WCI  13
DETROIT LAKES  CLOUDY    28  27  93 CALM      29.71S
MOORHEAD       CLOUDY    27  21  80 CALM      29.74F
PARK RAPIDS    LGT SNOW  26  21  81 S5        29.69F WCI  20
MAHNOMEN       FAIR      23  20  89 W5        29.70S WCI  17
$$
MNZ006-009>011-018-025>026-260400-
   North Central Minnesota

CITY           SKY/WX    TMP DP  RH WIND       PRES   REMARKS
BAUDETTE       CLOUDY    17   9  70 W7        29.68S WCI   8
FLAG ISLAND    MOCLDY    16  10  79 W12       29.68S WCI   3
INTL FALLS     CLOUDY    21  15  78 W8        29.67S WCI  11
WASKISH        MOCLDY    16  12  86 W7        29.70S WCI   6
BIG FORK       PTCLDY    23  18  80 CALM      29.69S
LONGVILLE      CLOUDY    27  21  80 SW5       29.71S WCI  21
GRAND RAPIDS   CLOUDY    24  19  81 SW3       29.71F
CRANE LAKE     FLURRIES  18  16  93 S3        29.69S
ORR            CLOUDY    21  16  79 W3        29.65S
COOK           LGT SNOW  23  19  86 SW7       29.68S WCI  15
WALKER         CLOUDY    23  20  87 SW3       29.70S
$$
MNZ012-019>021-037-260400-
   Northeast Minnesota

CITY           SKY/WX    TMP DP  RH WIND       PRES   REMARKS
DULUTH         LGT SNOW  26  22  84 SW9       29.71S FOG     WCI  17
ELY            FLURRIES  21  16  79 SW6       29.66F WCI  14
HIBBING        PTCLDY    22  17  81 SW5       29.68F WCI  16
EVELETH        MOCLDY    23  17  78 W5        29.70S WCI  16
DULUTH HARBOR  LGT SNOW  28  25  86 SW10      29.77R WCI  19
TWO HARBORS    CLEAR     23  16  74 W5        29.70S WCI  17
SILVER BAY     PTCLDY    16  12  86 CALM      29.70S
GRAND MARAIS     N/A     22  12  65 CALM      29.73F
G MARAIS ARPRT FLURRIES  16   7  67 CALM      29.65F
$$
MNZ029>031-032-039>041-046>048-054>057-064-260400-
   West Central Minnesota

CITY           SKY/WX    TMP DP  RH WIND       PRES   REMARKS
FERGUS FALLS   LGT SNOW  25  25 100 CALM      29.78S
WHEATON        LGT SNOW  27  27 100 N8        29.77R WCI  18
MORRIS         CLOUDY    30  25  80 S14       29.72F WCI  20
ALEXANDRIA     CLOUDY    30  22  72 S13       29.71F WCI  20
ELBOW LAKE     LGT SNOW  26  25  99 W5        29.73S WCI  20
WADENA         LGT SNOW  25  23  93 CALM      29.71S VSB 3/4
GLENWOOD       CLOUDY    28  23  80 S16G23    29.73S WCI  17
APPLETON       CLOUDY    30  23  74 SW8       29.75S WCI  23
BENSON         CLOUDY    32  19  59 SW15      29.77F WCI  22
ORTONVILLE       N/A     28  21  74 CALM      29.73F
MADISON        CLOUDY    32  23  69 SW14      29.75F WCI  22
WILLMAR        FAIR      28  23  80 S6        29.79S WCI  22
$$
MNZ033>034-036-042>043-049>051-058-059-260400-
   Central Minnesota

CITY           SKY/WX    TMP DP  RH WIND       PRES   REMARKS
ST CLOUD       MOCLDY    29  21  72 SW16      29.78S WCI  17
SAUK CENTRE    CLOUDY    29  22  75 S15       29.74S WCI  17
PAYNESVILLE    CLOUDY    28  22  76 S10G17    29.77F WCI  19
AITKIN         LGT SNOW  28  25  86 CALM      29.71F VSB 3/4
PINE RIVER     LGT SNOW  27  25  93 SW3       29.75S
BRAINERD       LGT SNOW  27  26  96 SW5       29.72F VSB 1   WCI  22
STAPLES        LGT SNOW  25  25 100 NW3       29.71F
LONG PRAIRIE   CLOUDY    28  21  74 S12       29.73S WCI  18
LITTLE FALLS   CLOUDY    30  21  69 SW13G20   29.74F WCI  20
LITCHFIELD     PTCLDY    28  21  74 S5        29.80S WCI  23
BUFFALO        MOCLDY    28  20  72 S9G17     29.82S WCI  19
MAPLE LAKE     CLOUDY    29  23  78 SW9       29.81S WCI  21
HUTCHINSON     CLEAR     28  22  78 S12G17    29.82F WCI  18
$$
MNZ037-044-045-052-053-260400-
   East Central Minnesota

CITY           SKY/WX    TMP DP  RH WIND       PRES   REMARKS
PRINCETON      CLOUDY    30  21  69 S9G17     29.79S WCI  22
MORA           CLOUDY    30  21  69 SW10      29.78S WCI  21
CAMBRIDGE      PTCLDY    30  21  69 S7        29.77F WCI  23
RUSH CITY      MOCLDY    30  21  69 S13       29.79S WCI  20
MOOSE LAKE     LGT SNOW  28  25  86 CALM      29.73S
HINCKLEY       MOCLDY    30  23  74 SW10      29.76F WCI  21
CLOQUET        LGT SNOW  27  23  86 SW3       29.72F
MCGREGOR       CLOUDY    28  27  93 S3        29.73S VSB 1
$$
MNZ071>073-080-081-089-090-097-098-260400-
   Southwest Minnesota

CITY           SKY/WX    TMP DP  RH WIND       PRES   REMARKS
MONTEVIDEO     CLOUDY    28  19  69 SW10      29.79S WCI  19
GRANITE FALLS  PTCLDY    29  21  73 S13       29.81S WCI  19
CANBY          CLOUDY    29  21  72 SW17G26   29.76F WCI  17
MARSHALL       MOCLDY    26  18  71 SW15      29.78F WCI  14
REDWOOD FALLS  CLEAR     26  17  68 S15       29.81F WCI  14
OLIVIA         PTCLDY    30  23  74 S12       29.80S WCI  21
PIPESTONE      CLEAR     25  16  68 SW12      29.78S WCI  14
WINDOM         CLEAR     23  16  74 S12G20    29.82F WCI  12
WORTHINGTON    CLOUDY    22  16  78 S22       29.81F WCI   6
JACKSON        CLEAR     21  14  73 S10       29.84F WCI  10
TRACY          CLEAR     26  19  74 SW17G23   29.79F WCI  13
SLAYTON        PTCLDY    22  17  80 S18G24    29.79F WCI   7
$$
MNZ065>067-074>077-082>085-091>093-260400-
   South Central Minnesota

CITY           SKY/WX    TMP DP  RH WIND       PRES   REMARKS
MANKATO          N/A     24  18  77 S13G18    29.87F WCI  12
NEW ULM        PTCLDY    25  16  68 S13       29.84S WCI  13
ST JAMES       CLEAR     21  16  79 S9        29.86F WCI  11
FAIRMONT       PTCLDY    21  16  81 S16       29.87F WCI   7
GLENCOE        CLOUDY    28  24  84 S10       29.82S WCI  19
FARIBAULT      CLOUDY    21  16  79 S5        29.88F WCI  15
OWATONNA       MOCLDY    21  16  79 S14       29.88S WCI   8
WASECA         PTCLDY    23  18  80 S13       29.89F WCI  11
ALBERT LEA     CLOUDY    21  16  79 S10G16    29.89S WCI  10
$$
MNZ078>079-086>088-094>096-260400-
   Southeast Minnesota

CITY           SKY/WX    TMP DP  RH WIND       PRES   REMARKS
ROCHESTER      CLOUDY    18  12  77 S13       29.90F WCI   5
RED WING       PTCLDY    23  12  63 SW10      29.90R WCI  12
STANTON        MOCLDY    22  16  75 S8        29.86F WCI  13
WINONA         CLEAR     23  14  68 SW9       29.96R WCI  13
AUSTIN         CLOUDY    19  14  79 S9        29.91S WCI   9
PRESTON        CLOUDY    17  12  79 S8        29.92F WCI   7
$$
ABBREVIATIONS USED IN REMARKS
   TC - TEMPERATURES IN CELSIUS
  WCI - WIND CHILL INDEX
   HX - HEAT INDEX
  VSB - VISIBILITY
$$




USA.gov is the U.S. government's official web portal to all federal, state and local government web resources and services.